Regional Weather Roundup
Issued by NWS State College, PA

Home | Current Version | Previous Version | Text Only | Print | Product List | Glossary On
Versions: 1 2 3 4 5 6 7 8 9 10 11 12 13 14 15 16 17 18 19 20 21 22 23 24 25 26 27 28 29 30 31 32 33 34 35 36 37 38 39 40 41 42 43 44 45 46 47 48 49 50
000
ASUS41 KCTP 290103
RWRCTP

REGIONAL WEATHER ROUNDUP
NATIONAL WEATHER SERVICE STATE COLLEGE PA
800 PM EST FRI NOV 28 2014

Note: "fair" indicates few or no clouds below 12,000 feet with no
significant weather and/or obstructions to visibility.

* = STATION THAT DOES NOT REPORT PRECIPITATION /E.G. RAIN...SNOW...ETC/
    THUNDER OR FOG.

PAZ002>004-007>009-013>016-020>023-029>032-290200-
WESTERN PENNSYLVANIA

CITY           SKY/WX    TMP DP  RH WIND       PRES   REMARKS
ERIE           MOCLDY    25  14  63 S8        30.22S
MEADVILLE      PTCLDY    22  14  71 CALM      30.17F
FRANKLIN*      MOCLDY    19  10  68 SE5       30.19F WCI  13
NEW CASTLE       N/A     25  16  68 CALM      30.22F
BEAVER COUNTY  NOT AVBL
BUTLER*        PTCLDY    25  16  68 S3        30.22F
PITTSBURGH INT MOCLDY    26  18  71 SE3       30.20F
PITTSBURGH     MOCLDY    26  15  63 S6        30.20F
INDIANA*       CLOUDY    23  18  80 CALM      30.25S
LATROBE        MOCLDY    27  18  69 SW6       30.25S
WASHINGTON CO* MOCLDY    27  18  69 S5        30.22F
$$

PAZ004>006-010>012-017>019-024>028-033>037-041-042-045-046-049>053-290200-
CENTRAL PENNSYLVANIA

CITY           SKY/WX    TMP DP  RH WIND       PRES   REMARKS
BRADFORD       MOCLDY    19  11  70 CALM      30.14S
DUBOIS         PTCLDY    19  12  74 CALM      30.16F
CLEARFIELD     CLEAR     20  11  68 CALM      30.20S
JOHNSTOWN      CLOUDY    20  12  71 SW5       30.15S WCI  13
ALTOONA        PTCLDY    22  12  65 S6        30.21S WCI  14
STATE COLLEGE  CLEAR     21  12  68 SW5       30.22F WCI  15
WILLIAMSPORT   CLEAR     27  14  58 W7        30.25R
SELINSGROVE    CLEAR     23  16  74 CALM      30.27R
FT INDIANTOWN  CLEAR     29  14  53 W6        30.27R
CAPITAL CITY   PTCLDY    28  15  58 W7        30.29R
HARRISBURG     MOCLDY    29  15  56 W7        30.28R
YORK           PTCLDY    23  15  71 CALM      30.27S
$$

PAZ038>040-043-044-047-048-054-055-060>062-067>071-290200-
EASTERN PENNSYLVANIA

CITY           SKY/WX    TMP DP  RH WIND       PRES   REMARKS
SCRANTON       CLEAR     20  10  65 S7        30.21R WCI  11
MOUNT POCONO   CLEAR     17   8  67 NW6       30.13S WCI   9
ALLENTOWN      CLEAR     26  13  57 CALM      30.25R
QUAKERTOWN*    CLEAR     23  18  80 NW3       30.24F
READING        CLEAR     28  16  60 CALM      30.26R
LANCASTER      PTCLDY    27  15  61 W5        30.26R
COATESVILLE    CLEAR     27  18  69 W3        30.25S
POTTSTOWN      CLEAR     25  17  72 CALM      30.27R
BLUE BELL      CLEAR     28  21  74 CALM      30.26R
DOYLESTOWN     CLEAR     25  16  68 CALM      30.24S
WILLOW GROVE   NOT AVBL
NORTH PHILA    CLEAR     30  15  53 W6        30.28S
PHILADELPHIA   PTCLDY    31  16  54 W7        30.29R
$$



USA.gov is the U.S. government's official web portal to all federal, state and local government web resources and services.